Time,TemperatureF,DewpointF,PressureIn,WindDirection,WindDirectionDegrees,WindSpeedMPH,WindSpeedGustMPH,Humidity,HourlyPrecipIn,Conditions,Clouds,dailyrainin,SoftwareType,DateUTC
2013-04-01 00:02:00,49.0,40.0,-100.00,WNW,300,2.0,2.0,70,-99.99,,,-99.99,,2013-04-01 05:02:00,
2013-04-01 00:12:00,48.0,39.0,-100.00,SW,230,0.0,2.0,71,-99.99,,,-99.99,,2013-04-01 05:12:00,
2013-04-01 00:22:00,48.0,39.0,-100.00,SW,230,0.0,2.0,71,-99.99,,,-99.99,,2013-04-01 05:22:00,
2013-04-01 00:32:00,46.0,41.0,-100.00,WNW,285,0.0,2.0,81,-99.99,,,-99.99,,2013-04-01 05:32:00,
2013-04-01 00:43:00,45.0,40.0,-100.00,WNW,300,0.0,2.0,82,-99.99,,,-99.99,,2013-04-01 05:43:00,
2013-04-01 00:52:00,45.0,40.0,-100.00,WNW,300,0.0,2.0,82,-99.99,,,-99.99,,2013-04-01 05:52:00,
2013-04-01 01:02:00,45.0,40.0,-100.00,West,265,0.0,2.0,83,-99.99,,,-99.99,,2013-04-01 06:02:00,
2013-04-01 01:12:00,44.0,39.0,-100.00,West,280,1.0,3.0,85,-99.99,,,-99.99,,2013-04-01 06:12:00,
2013-04-01 01:22:00,44.0,39.0,-100.00,West,280,1.0,3.0,85,-99.99,,,-99.99,,2013-04-01 06:22:00,
2013-04-01 01:33:00,43.0,39.0,-100.00,WSW,245,0.0,5.0,86,-99.99,,,-99.99,,2013-04-01 06:33:00,
2013-04-01 01:43:00,43.0,39.0,-100.00,WNW,285,0.0,1.0,87,-99.99,,,-99.99,,2013-04-01 06:43:00,
2013-04-01 01:52:00,43.0,39.0,-100.00,WNW,285,0.0,1.0,87,-99.99,,,-99.99,,2013-04-01 06:52:00,
2013-04-01 02:02:00,42.0,39.0,-100.00,WNW,300,1.0,2.0,89,-99.99,,,-99.99,,2013-04-01 07:02:00,
2013-04-01 02:12:00,41.0,39.0,-100.00,NW,320,1.0,2.0,90,-99.99,,,-99.99,,2013-04-01 07:12:00,
2013-04-01 02:22:00,41.0,39.0,-100.00,NW,320,1.0,2.0,90,-99.99,,,-99.99,,2013-04-01 07:22:00,
2013-04-01 02:32:00,41.0,38.0,-100.00,NW,320,0.0,1.0,92,-99.99,,,-99.99,,2013-04-01 07:32:00,
2013-04-01 02:42:00,41.0,38.0,-100.00,WNW,295,1.0,3.0,92,-99.99,,,-99.99,,2013-04-01 07:42:00,
2013-04-01 02:52:00,41.0,38.0,-100.00,WNW,295,1.0,3.0,92,-99.99,,,-99.99,,2013-04-01 07:52:00,
2013-04-01 03:03:00,40.0,38.0,-100.00,SE,125,0.0,4.0,92,-99.99,,,-99.99,,2013-04-01 08:03:00,
2013-04-01 03:12:00,40.0,38.0,-100.00,NW,320,0.0,1.0,92,-99.99,,,-99.99,,2013-04-01 08:12:00,
2013-04-01 03:22:00,40.0,38.0,-100.00,NW,320,0.0,1.0,92,-99.99,,,-99.99,,2013-04-01 08:22:00,
2013-04-01 03:32:00,39.0,37.0,-100.00,NW,320,1.0,2.0,93,-99.99,,,-99.99,,2013-04-01 08:32:00,
2013-04-01 03:43:00,39.0,38.0,-100.00,SE,130,1.0,4.0,95,-99.99,,,-99.99,,2013-04-01 08:43:00,
2013-04-01 03:52:00,39.0,38.0,-100.00,SE,130,1.0,4.0,95,-99.99,,,-99.99,,2013-04-01 08:52:00,
2013-04-01 04:02:00,38.0,37.0,-100.00,West,275,0.0,1.0,94,-99.99,,,-99.99,,2013-04-01 09:02:00,
2013-04-01 04:12:00,38.0,37.0,-100.00,WNW,295,0.0,2.0,94,-99.99,,,-99.99,,2013-04-01 09:12:00,
2013-04-01 04:22:00,38.0,37.0,-100.00,WNW,295,0.0,2.0,94,-99.99,,,-99.99,,2013-04-01 09:22:00,
2013-04-01 04:33:00,40.0,36.0,-100.00,SSE,160,1.0,4.0,84,-99.99,,,-99.99,,2013-04-01 09:33:00,
2013-04-01 04:42:00,41.0,35.0,-100.00,NW,325,2.0,6.0,79,-99.99,,,-99.99,,2013-04-01 09:42:00,
2013-04-01 04:53:00,41.0,35.0,-100.00,NW,325,2.0,6.0,79,-99.99,,,-99.99,,2013-04-01 09:53:00,
2013-04-01 05:03:00,38.0,35.0,-100.00,NW,315,2.0,3.0,90,-99.99,,,-99.99,,2013-04-01 10:03:00,
2013-04-01 05:12:00,38.0,36.0,-100.00,NW,320,2.0,3.0,91,-99.99,,,-99.99,,2013-04-01 10:12:00,
2013-04-01 05:23:00,38.0,36.0,-100.00,NW,320,2.0,3.0,91,-99.99,,,-99.99,,2013-04-01 10:23:00,
2013-04-01 05:33:00,38.0,34.0,-100.00,NW,320,2.0,2.0,86,-99.99,,,-99.99,,2013-04-01 10:33:00,
2013-04-01 05:42:00,38.0,34.0,-100.00,NW,320,4.0,5.0,86,-99.99,,,-99.99,,2013-04-01 10:42:00,
2013-04-01 05:53:00,38.0,34.0,-100.00,NW,320,4.0,5.0,86,-99.99,,,-99.99,,2013-04-01 10:53:00,
2013-04-01 06:03:00,39.0,35.0,-100.00,NW,320,2.0,4.0,83,-99.99,,,-99.99,,2013-04-01 11:03:00,
2013-04-01 06:13:00,41.0,33.0,-100.00,NW,320,3.0,5.0,75,-99.99,,,-99.99,,2013-04-01 11:13:00,
2013-04-01 06:23:00,41.0,33.0,-100.00,NW,320,3.0,5.0,75,-99.99,,,-99.99,,2013-04-01 11:23:00,
2013-04-01 06:33:00,39.0,33.0,-100.00,NW,320,2.0,4.0,79,-99.99,,,-99.99,,2013-04-01 11:33:00,
2013-04-01 06:42:00,38.0,33.0,-100.00,NW,320,4.0,5.0,81,-99.99,,,-99.99,,2013-04-01 11:42:00,
2013-04-01 06:52:00,38.0,33.0,-100.00,NW,320,4.0,5.0,81,-99.99,,,-99.99,,2013-04-01 11:52:00,
2013-04-01 07:02:00,39.0,32.0,-100.00,NW,320,2.0,4.0,77,-99.99,,,-99.99,,2013-04-01 12:02:00,
2013-04-01 07:12:00,38.0,33.0,-100.00,NW,320,1.0,2.0,80,-99.99,,,-99.99,,2013-04-01 12:12:00,
2013-04-01 07:23:00,38.0,33.0,-100.00,NW,320,1.0,2.0,80,-99.99,,,-99.99,,2013-04-01 12:23:00,
2013-04-01 07:32:00,39.0,32.0,-100.00,NW,320,2.0,5.0,76,-99.99,,,-99.99,,2013-04-01 12:32:00,
2013-04-01 07:42:00,37.0,33.0,-100.00,NW,320,2.0,4.0,84,-99.99,,,-99.99,,2013-04-01 12:42:00,
2013-04-01 07:53:00,37.0,33.0,-100.00,NW,320,2.0,4.0,84,-99.99,,,-99.99,,2013-04-01 12:53:00,
2013-04-01 08:03:00,38.0,33.0,-100.00,NW,320,2.0,4.0,83,-99.99,,,-99.99,,2013-04-01 13:03:00,
2013-04-01 08:12:00,38.0,33.0,-100.00,NW,320,3.0,5.0,83,-99.99,,,-99.99,,2013-04-01 13:12:00,
2013-04-01 08:22:00,38.0,33.0,-100.00,NW,320,3.0,5.0,83,-99.99,,,-99.99,,2013-04-01 13:22:00,
2013-04-01 08:32:00,40.0,33.0,-100.00,NW,320,5.0,9.0,76,-99.99,,,-99.99,,2013-04-01 13:32:00,
2013-04-01 08:42:00,41.0,34.0,-100.00,NW,320,4.0,9.0,75,-99.99,,,-99.99,,2013-04-01 13:42:00,
2013-04-01 08:52:00,41.0,34.0,-100.00,NW,320,4.0,9.0,75,-99.99,,,-99.99,,2013-04-01 13:52:00,
2013-04-01 09:04:00,41.0,34.0,-100.00,NW,320,4.0,9.0,76,-99.99,,,-99.99,,2013-04-01 14:04:00,
2013-04-01 09:12:00,41.0,34.0,-100.00,NW,320,5.0,9.0,76,-99.99,,,-99.99,,2013-04-01 14:12:00,
2013-04-01 09:22:00,41.0,34.0,-100.00,NW,320,5.0,9.0,76,-99.99,,,-99.99,,2013-04-01 14:22:00,
2013-04-01 09:33:00,42.0,33.0,-100.00,NW,320,5.0,11.0,72,-99.99,,,-99.99,,2013-04-01 14:33:00,
2013-04-01 09:42:00,42.0,34.0,-100.00,NW,320,6.0,12.0,73,-99.99,,,-99.99,,2013-04-01 14:42:00,
2013-04-01 09:52:00,42.0,34.0,-100.00,NW,320,6.0,12.0,73,-99.99,,,-99.99,,2013-04-01 14:52:00,
2013-04-01 10:03:00,42.0,34.0,-100.00,NW,320,6.0,11.0,71,-99.99,,,-99.99,,2013-04-01 15:03:00,
2013-04-01 10:13:00,43.0,35.0,-100.00,NW,320,6.0,11.0,73,-99.99,,,-99.99,,2013-04-01 15:13:00,
2013-04-01 10:22:00,43.0,35.0,-100.00,NW,320,6.0,11.0,73,-99.99,,,-99.99,,2013-04-01 15:22:00,
2013-04-01 10:30:00,43.0,34.0,-100.00,NW,320,5.0,10.0,70,-99.99,,,-99.99,,2013-04-01 15:30:00,
2013-04-01 10:34:00,42.0,33.0,-100.00,NW,320,7.0,13.0,71,-99.99,,,-99.99,,2013-04-01 15:34:00,
2013-04-01 10:43:00,42.0,34.0,-100.00,NW,320,5.0,11.0,73,-99.99,,,-99.99,,2013-04-01 15:43:00,
2013-04-01 10:53:00,42.0,34.0,-100.00,NW,320,5.0,11.0,73,-99.99,,,-99.99,,2013-04-01 15:53:00,
2013-04-01 11:03:00,43.0,35.0,-100.00,NW,320,6.0,10.0,71,-99.99,,,-99.99,,2013-04-01 16:03:00,
2013-04-01 11:13:00,43.0,34.0,-100.00,NW,320,5.0,10.0,70,-99.99,,,-99.99,,2013-04-01 16:13:00,
2013-04-01 11:20:00,44.0,33.0,-100.00,NW,320,11.0,15.0,65,-99.99,,,-99.99,,2013-04-01 16:20:00,
2013-04-01 11:23:00,43.0,34.0,-100.00,NW,320,5.0,10.0,70,-99.99,,,-99.99,,2013-04-01 16:23:00,
2013-04-01 12:03:00,44.0,33.0,-100.00,NW,320,11.0,15.0,65,-99.99,,,-99.99,,2013-04-01 17:03:00,
2013-04-01 12:12:00,44.0,33.0,-100.00,NW,320,11.0,15.0,65,-99.99,,,-99.99,,2013-04-01 17:12:00,
2013-04-01 12:32:00,46.0,34.0,-100.00,NW,320,10.0,16.0,62,-99.99,,,-99.99,,2013-04-01 17:32:00,
2013-04-01 12:42:00,46.0,35.0,-100.00,NW,315,9.0,13.0,64,-99.99,,,-99.99,,2013-04-01 17:42:00,
2013-04-01 12:52:00,46.0,35.0,-100.00,NW,315,9.0,13.0,64,-99.99,,,-99.99,,2013-04-01 17:52:00,
2013-04-01 13:02:00,46.0,33.0,-100.00,NW,320,10.0,14.0,60,-99.99,,,-99.99,,2013-04-01 18:02:00,
2013-04-01 13:12:00,47.0,33.0,-100.00,NW,320,8.0,14.0,57,-99.99,,,-99.99,,2013-04-01 18:12:00,
2013-04-01 13:22:00,47.0,33.0,-100.00,NW,320,8.0,14.0,57,-99.99,,,-99.99,,2013-04-01 18:22:00,
2013-04-01 13:32:00,47.0,32.0,-100.00,NW,315,7.0,16.0,56,-99.99,,,-99.99,,2013-04-01 18:32:00,
2013-04-01 13:42:00,49.0,35.0,-100.00,NW,320,9.0,16.0,58,-99.99,,,-99.99,,2013-04-01 18:42:00,
2013-04-01 13:52:00,49.0,35.0,-100.00,NW,320,9.0,16.0,58,-99.99,,,-99.99,,2013-04-01 18:52:00,
2013-04-01 14:03:00,47.0,32.0,-100.00,NW,315,11.0,18.0,56,-99.99,,,-99.99,,2013-04-01 19:03:00,
2013-04-01 14:13:00,49.0,34.0,-100.00,NW,320,9.0,17.0,58,-99.99,,,-99.99,,2013-04-01 19:13:00,
2013-04-01 14:23:00,49.0,34.0,-100.00,NW,320,9.0,17.0,58,-99.99,,,-99.99,,2013-04-01 19:23:00,
2013-04-01 14:32:00,49.0,35.0,-100.00,NW,320,12.0,17.0,58,-99.99,,,-99.99,,2013-04-01 19:32:00,
2013-04-01 14:42:00,48.0,33.0,-100.00,NW,315,12.0,16.0,54,-99.99,,,-99.99,,2013-04-01 19:42:00,
2013-04-01 14:53:00,48.0,33.0,-100.00,NW,315,12.0,16.0,54,-99.99,,,-99.99,,2013-04-01 19:53:00,
2013-04-01 15:02:00,49.0,32.0,-100.00,NW,315,8.0,15.0,52,-99.99,,,-99.99,,2013-04-01 20:02:00,
2013-04-01 15:13:00,51.0,32.0,-100.00,NW,320,7.0,15.0,48,-99.99,,,-99.99,,2013-04-01 20:13:00,
2013-04-01 15:22:00,51.0,32.0,-100.00,NW,320,7.0,15.0,48,-99.99,,,-99.99,,2013-04-01 20:22:00,
2013-04-01 15:32:00,49.0,28.0,-100.00,NW,320,11.0,15.0,44,-99.99,,,-99.99,,2013-04-01 20:32:00,
2013-04-01 15:42:00,49.0,27.0,-100.00,NW,315,6.0,16.0,42,-99.99,,,-99.99,,2013-04-01 20:42:00,
2013-04-01 15:52:00,49.0,27.0,-100.00,NW,315,6.0,16.0,42,-99.99,,,-99.99,,2013-04-01 20:52:00,
2013-04-01 16:02:00,50.0,25.0,-100.00,NW,315,11.0,15.0,38,-99.99,,,-99.99,,2013-04-01 21:02:00,
2013-04-01 16:12:00,49.0,23.0,-100.00,NW,320,11.0,16.0,35,-99.99,,,-99.99,,2013-04-01 21:12:00,
2013-04-01 16:23:00,49.0,23.0,-100.00,NW,320,11.0,16.0,35,-99.99,,,-99.99,,2013-04-01 21:23:00,
2013-04-01 16:32:00,49.0,24.0,-100.00,NW,320,13.0,16.0,37,-99.99,,,-99.99,,2013-04-01 21:32:00,
2013-04-01 16:43:00,49.0,24.0,-100.00,NW,315,10.0,14.0,38,-99.99,,,-99.99,,2013-04-01 21:43:00,
2013-04-01 16:52:00,49.0,24.0,-100.00,NW,315,10.0,14.0,38,-99.99,,,-99.99,,2013-04-01 21:52:00,
2013-04-01 17:02:00,47.0,21.0,-100.00,NW,315,12.0,17.0,35,-99.99,,,-99.99,,2013-04-01 22:02:00,
2013-04-01 17:12:00,48.0,21.0,-100.00,NW,315,10.0,16.0,35,-99.99,,,-99.99,,2013-04-01 22:12:00,
2013-04-01 17:22:00,48.0,21.0,-100.00,NW,315,10.0,16.0,35,-99.99,,,-99.99,,2013-04-01 22:22:00,
2013-04-01 17:33:00,48.0,22.0,-100.00,NW,320,12.0,15.0,35,-99.99,,,-99.99,,2013-04-01 22:33:00,
2013-04-01 17:43:00,49.0,23.0,-100.00,NW,315,10.0,17.0,36,-99.99,,,-99.99,,2013-04-01 22:43:00,
2013-04-01 17:52:00,49.0,23.0,-100.00,NW,315,10.0,17.0,36,-99.99,,,-99.99,,2013-04-01 22:52:00,
2013-04-01 18:02:00,48.0,21.0,-100.00,NW,320,8.0,15.0,34,-99.99,,,-99.99,,2013-04-01 23:02:00,
2013-04-01 18:12:00,48.0,20.0,-100.00,NW,320,8.0,12.0,33,-99.99,,,-99.99,,2013-04-01 23:12:00,
2013-04-01 18:23:00,48.0,20.0,-100.00,NW,320,8.0,12.0,33,-99.99,,,-99.99,,2013-04-01 23:23:00,
2013-04-01 18:32:00,47.0,19.0,-100.00,NW,320,8.0,12.0,32,-99.99,,,-99.99,,2013-04-01 23:32:00,
2013-04-01 18:43:00,47.0,20.0,-100.00,NW,320,8.0,13.0,34,-99.99,,,-99.99,,2013-04-01 23:43:00,
2013-04-01 18:52:00,47.0,20.0,-100.00,NW,320,8.0,13.0,34,-99.99,,,-99.99,,2013-04-01 23:52:00,
2013-04-01 19:03:00,47.0,21.0,-100.00,NW,320,5.0,10.0,36,-99.99,,,-99.99,,2013-04-02 00:03:00,
2013-04-01 19:12:00,46.0,21.0,-100.00,NW,320,7.0,14.0,36,-99.99,,,-99.99,,2013-04-02 00:12:00,
2013-04-01 19:22:00,46.0,21.0,-100.00,NW,320,7.0,14.0,36,-99.99,,,-99.99,,2013-04-02 00:22:00,
2013-04-01 19:33:00,46.0,21.0,-100.00,NW,320,5.0,11.0,37,-99.99,,,-99.99,,2013-04-02 00:33:00,
2013-04-01 19:42:00,46.0,22.0,-100.00,NW,320,5.0,7.0,39,-99.99,,,-99.99,,2013-04-02 00:42:00,
2013-04-01 19:52:00,46.0,22.0,-100.00,NW,320,5.0,7.0,39,-99.99,,,-99.99,,2013-04-02 00:52:00,
2013-04-01 20:02:00,45.0,24.0,-100.00,NW,320,6.0,11.0,43,-99.99,,,-99.99,,2013-04-02 01:02:00,
2013-04-01 20:12:00,45.0,23.0,-100.00,NW,320,4.0,9.0,42,-99.99,,,-99.99,,2013-04-02 01:12:00,
2013-04-01 20:22:00,45.0,23.0,-100.00,NW,320,4.0,9.0,42,-99.99,,,-99.99,,2013-04-02 01:22:00,
2013-04-01 20:32:00,44.0,23.0,-100.00,NW,320,6.0,10.0,43,-99.99,,,-99.99,,2013-04-02 01:32:00,
2013-04-01 20:42:00,43.0,22.0,-100.00,NW,320,7.0,12.0,42,-99.99,,,-99.99,,2013-04-02 01:42:00,
2013-04-01 20:52:00,43.0,22.0,-100.00,NW,320,7.0,12.0,42,-99.99,,,-99.99,,2013-04-02 01:52:00,
2013-04-01 21:03:00,43.0,21.0,-100.00,NW,320,3.0,8.0,42,-99.99,,,-99.99,,2013-04-02 02:03:00,
2013-04-01 21:12:00,42.0,22.0,-100.00,NW,320,4.0,9.0,43,-99.99,,,-99.99,,2013-04-02 02:12:00,
2013-04-01 21:22:00,42.0,22.0,-100.00,NW,320,4.0,9.0,43,-99.99,,,-99.99,,2013-04-02 02:22:00,
2013-04-01 21:32:00,42.0,23.0,-100.00,NW,320,5.0,10.0,46,-99.99,,,-99.99,,2013-04-02 02:32:00,
2013-04-01 21:42:00,42.0,22.0,-100.00,NW,320,4.0,10.0,45,-99.99,,,-99.99,,2013-04-02 02:42:00,
2013-04-01 21:52:00,42.0,22.0,-100.00,NW,320,4.0,10.0,45,-99.99,,,-99.99,,2013-04-02 02:52:00,
2013-04-01 22:02:00,42.0,22.0,-100.00,NW,320,5.0,9.0,45,-99.99,,,-99.99,,2013-04-02 03:02:00,
2013-04-01 22:12:00,42.0,23.0,-100.00,NW,320,4.0,10.0,47,-99.99,,,-99.99,,2013-04-02 03:12:00,
2013-04-01 22:22:00,42.0,23.0,-100.00,NW,320,4.0,10.0,47,-99.99,,,-99.99,,2013-04-02 03:22:00,
2013-04-01 22:33:00,42.0,23.0,-100.00,NW,320,2.0,6.0,47,-99.99,,,-99.99,,2013-04-02 03:33:00,
2013-04-01 22:43:00,42.0,23.0,-100.00,NW,320,3.0,8.0,47,-99.99,,,-99.99,,2013-04-02 03:43:00,
2013-04-01 22:53:00,42.0,23.0,-100.00,NW,320,3.0,8.0,47,-99.99,,,-99.99,,2013-04-02 03:53:00,
2013-04-01 23:03:00,42.0,23.0,-100.00,NW,320,6.0,9.0,47,-99.99,,,-99.99,,2013-04-02 04:03:00,
2013-04-01 23:13:00,42.0,23.0,-100.00,NW,320,9.0,12.0,47,-99.99,,,-99.99,,2013-04-02 04:13:00,
2013-04-01 23:23:00,42.0,23.0,-100.00,NW,320,9.0,12.0,47,-99.99,,,-99.99,,2013-04-02 04:23:00,
2013-04-01 23:32:00,42.0,24.0,-100.00,NW,320,5.0,12.0,50,-99.99,,,-99.99,,2013-04-02 04:32:00,
2013-04-01 23:43:00,41.0,23.0,-100.00,NW,320,5.0,11.0,47,-99.99,,,-99.99,,2013-04-02 04:43:00,
2013-04-01 23:52:00,41.0,23.0,-100.00,NW,320,5.0,11.0,47,-99.99,,,-99.99,,2013-04-02 04:52:00,